Location: Tyler Bend Campground
(35.9875°N, 92.7606°W)
Time: 11:35:50
(UTC-05:00)

CZ-2C R/B - Visible Passes

Search period start: 28 August 2016 00:00
Search period end: 07 September 2016 00:00
Orbit: 669 x 784 km, 98.1° (Epoch: 28 August)

Date Brightness Start Highest point End Pass type
(mag) Time Alt. Az. Time Alt. Az. Time Alt. Az.
28 Aug 5.5 20:10:43 10° SW 20:13:57 17° W 20:17:13 10° NW visible
30 Aug 5.5 20:13:26 10° SW 20:16:29 16° W 20:19:32 10° NW visible
01 Sep 5.6 20:16:12 10° SW 20:19:00 15° W 20:21:49 10° WNW visible
03 Sep 5.7 20:18:59 10° WSW 20:21:31 14° W 20:24:03 10° WNW visible
05 Sep 5.8 20:21:50 10° WSW 20:24:02 13° W 20:26:15 10° WNW visible
